Theta_e
320 315 310 312 312 300 299 294 280 284 281 277 277 278 277 285 284 281 282 282 281 285 286 288 287 287 285 284 285 285 286 283 283 276 277 284 294 296 298 299 299 300 301 302 302 304 305 313 316 317 317 318 317 317 317 316 316 316 315 315 315 315 315 315 315 315 315 314 315 315 315 313 314 314 314 315 316 316 316 316 316 315 315 315 315 315 315 315 316 315 315 315 316 314 314 314 312
316 307 303 304 301 295 290 289 280 278 279 277 278 277 280 283 283 281 281 283 284 286 286 287 288 288 288 287 287 287 286 287 287 286 291 295 296 296 298 302 300 301 301 302 302 303 304 306 315 316 317 317 316 317 316 316 316 315 316 316 316 315 315 314 314 314 314 313 313 313 314 314 313 313 313 314 315 315 314 314 315 314 314 315 314 314 314 314 315 314 314 313 314 315 313 313 312
307 306 302 303 301 294 290 288 277 276 276 274 276 279 283 282 281 282 284 285 286 287 287 286 287 286 286 287 285 284 281 290 291 291 290 295 292 294 298 300 301 302 302 301 303 303 303 309 314 315 316 316 317 317 316 316 316 315 315 315 315 314 313 313 313 314 314 313 313 313 313 313 312 312 313 313 314 314 313 313 313 313 313 313 313 313 314 314 314 313 312 312 312 313 312 312 312
306 305 300 299 292 294 283 281 279 276 276 275 275 281 281 281 283 285 287 288 286 285 286 287 285 289 286 284 286 287 286 288 291 291 290 291 290 294 296 301 303 301 301 301 301 301 303 311 313 315 315 316 316 317 316 316 315 314 314 314 314 314 313 313 313 313 313 313 313 312 312 312 312 312 312 313 314 313 313 313 312 312 313 313 313 313 313 313 313 312 311 311 312 312 312 311 311
305 305 303 296 291 287 285 281 278 277 276 274 275 281 283 284 284 286 287 286 286 286 286 287 284 288 289 286 288 282 284 290 291 293 292 293 295 294 296 300 299 300 301 301 302 302 302 311 312 313 314 315 316 315 315 315 314 314 314 313 314 313 313 312 312 312 312 312 312 312 312 312 312 312 311 312 312 312 311 312 312 312 312 312 313 313 312 312 312 311 311 311 311 311 311 311 310
303 303 303 299 289 291 285 280 279 279 279 279 279 281 283 285 285 285 285 286 285 285 286 285 285 286 285 288 289 285 290 286 291 293 292 293 297 297 301 302 297 300 300 300 300 300 301 310 311 312 313 314 314 314 314 313 313 313 313 313 313 313 312 312 312 311 311 311 311 311 311 311 311 311 311 311 311 312 312 311 311 310 311 311 312 312 312 312 312 311 310 310 310 310 311 310 309
298 298 294 295 293 290 280 279 278 280 282 283 281 283 284 284 285 285 285 285 286 287 286 287 287 286 284 287 289 291 293 292 293 293 294 297 298 298 298 296 298 299 299 300 300 301 304 310 310 311 312 312 312 312 312 312 312 312 311 311 311 312 312 312 311 311 311 311 311 311 310 310 310 310 310 310 311 311 311 311 311 311 311 311 311 311 310 310 311 310 310 309 309 310 310 309 309
301 295 291 287 284 284 281 281 280 279 281 283 284 284 284 285 285 285 284 284 285 285 287 287 287 284 285 288 284 290 292 294 295 296 296 297 298 297 296 295 297 297 299 300 301 305 311 310 309 310 311 311 311 311 311 311 311 311 311 311 311 310 310 310 310 310 310 310 309 309 309 309 308 308 309 309 309 310 310 311 310 310 310 310 311 311 311 311 310 310 310 309 309 309 309 308 308
297 297 294 289 283 282 280 280 281 282 283 285 285 289 291 286 285 284 283 286 286 285 286 287 285 283 283 285 284 287 292 294 296 300 298 297 297 297 296 295 296 296 299 300 300 301 303 309 308 308 309 309 309 309 309 309 310 309 309 309 309 309 309 309 309 309 309 308 308 308 308 308 308 307 307 308 308 309 309 310 309 309 309 309 309 310 310 310 309 309 309 308 307 308 308 308 308
293 291 284 284 283 280 280 277 278 281 282 284 285 285 286 286 285 285 284 284 285 284 285 286 285 283 285 283 284 288 290 294 297 296 296 297 298 297 296 296 297 298 298 298 299 300 303 308 308 307 307 308 308 308 308 308 308 308 308 308 308 308 308 308 308 308 308 308 307 306 306 306 306 307 306 307 307 307 308 309 309 309 309 309 309 309 309 308 308 308 308 307 307 307 307 307 307
287 290 290 283 280 279 279 278 281 283 284 285 285 286 285 285 285 284 285 284 286 285 286 287 285 284 285 285 283 287 292 294 294 294 296 297 297 295 294 296 297 298 298 299 299 301 301 302 307 307 307 307 307 307 307 307 307 307 307 307 307 307 307 307 307 307 307 306 305 305 305 305 305 305 305 304 305 306 306 307 308 309 309 309 308 308 308 308 308 307 308 307 306 306 306 306 306
286 284 285 280 278 278 279 280 280 282 284 283 285 288 289 286 285 284 284 284 285 284 286 287 286 285 284 284 284 289 292 293 294 295 295 296 295 296 295 295 297 297 299 299 301 299 299 302 302 305 307 306 306 305 306 306 306 305 305 305 305 305 305 305 305 306 305 304 304 303 303 303 303 303 303 302 303 304 304 305 307 308 308 308 308 308 307 307 307 306 306 305 305 305 305 305 305
289 288 285 281 279 280 280 281 280 283 281 284 285 289 287 286 285 285 284 284 284 284 286 288 287 286 283 284 285 288 291 293 294 294 295 294 295 295 295 295 297 298 299 301 299 298 298 297 298 301 303 306 304 303 304 304 304 304 304 304 304 303 303 303 303 304 304 303 302 302 301 301 301 301 301 302 301 303 303 303 305 307 306 306 307 307 306 307 306 306 305 304 304 303 303 303 303
289 286 284 281 280 279 278 278 280 279 280 284 286 288 288 287 287 284 285 285 285 284 287 289 289 286 284 284 285 286 288 292 293 294 294 294 294 294 295 296 296 296 298 297 297 298 297 297 298 297 295 296 297 301 302 302 302 302 302 302 302 302 301 301 301 301 302 301 300 300 299 298 298 299 299 300 299 300 301 301 302 305 305 305 305 306 306 305 305 305 304 303 302 302 301 301 301
293 288 283 280 279 278 281 278 281 278 280 283 288 286 286 289 286 286 286 284 286 287 289 291 289 287 281 284 280 286 289 290 293 295 293 294 295 295 296 296 297 296 295 296 297 296 296 296 295 296 296 293 293 293 293 298 301 301 301 300 301 300 300 299 298 298 299 299 298 298 297 296 296 297 297 297 298 298 300 299 299 303 304 303 303 304 304 304 304 304 303 303 301 300 299 299 299
291 287 282 278 278 277 280 280 278 280 281 283 288 285 285 287 287 287 287 286 286 289 290 288 290 289 287 286 285 289 290 291 294 293 294 294 295 295 295 295 294 294 294 295 296 296 296 295 294 294 294 293 293 293 293 293 303 300 299 299 299 299 298 298 297 296 296 297 296 296 296 295 294 292 296 293 295 296 297 296 298 299 301 302 301 302 302 302 302 302 302 301 300 299 297 296 296
290 288 282 277 278 279 280 279 280 277 280 283 286 287 284 285 287 288 288 287 287 287 287 288 289 291 287 286 288 289 290 295 296 293 294 293 293 293 293 293 294 293 297 295 294 295 295 295 294 293 293 293 293 293 293 292 295 300 298 298 297 297 297 296 296 295 294 295 294 295 295 289 286 285 287 288 293 292 295 296 296 297 299 300 299 300 300 300 300 300 300 299 298 297 295 293 294
289 283 280 280 277 279 281 280 280 281 282 282 284 284 284 283 286 288 288 286 284 285 286 287 289 289 289 290 290 291 292 293 292 292 291 291 291 290 290 291 292 293 293 294 295 295 295 294 294 293 294 293 293 295 295 295 295 300 289 292 294 296 297 297 293 290 294 286 296 289 288 289 287 285 287 294 288 290 290 295 295 295 296 297 297 297 297 298 298 299 298 297 296 295 294 284 285
285 281 281 280 278 283 283 282 282 283 282 283 283 284 285 284 284 287 285 283 285 284 285 286 287 288 290 290 290 291 291 291 291 291 290 291 290 291 291 291 291 291 292 294 295 295 295 295 294 295 293 293 293 293 295 295 293 292 290 290 295 296 296 293 290 291 285 285 287 286 289 286 288 287 288 291 291 292 291 293 293 293 293 294 294 294 295 296 296 296 296 295 294 293 285 282 282
285 283 280 280 283 283 284 285 284 283 284 283 283 284 284 285 286 287 285 281 284 282 282 284 284 285 287 289 289 290 290 290 291 291 291 291 291 291 291 291 291 291 292 293 295 296 295 295 295 295 294 293 293 292 294 292 290 289 289 289 287 288 288 290 287 286 286 285 285 287 286 287 286 283 293 293 293 285 286 292 292 292 292 291 292 288 291 292 293 293 293 293 290 287 282 282 282
286 284 277 282 284 281 284 285 284 284 286 283 282 284 284 284 285 286 283 282 282 282 283 285 285 286 287 288 289 289 289 289 290 291 291 291 291 292 291 292 292 293 293 293 295 296 296 296 295 294 294 293 293 292 294 290 291 289 288 288 287 287 286 286 286 285 286 285 285 287 287 287 284 283 282 283 283 283 282 283 282 282 283 281 291 280 282 282 284 281 281 285 281 283 282 282 282
285 283 284 284 283 283 285 284 284 284 284 284 282 284 283 286 286 284 284 281 278 282 286 287 287 288 288 288 288 288 289 289 289 290 291 291 291 292 292 292 292 291 292 293 294 296 295 296 295 294 294 293 294 292 294 294 293 288 288 288 286 286 287 286 285 285 285 285 285 288 288 284 283 283 282 281 282 282 282 282 282 282 280 281 285 281 281 282 281 281 281 282 281 281 282 282 282
284 283 282 283 282 283 285 285 285 283 284 283 282 285 285 285 284 283 284 284 283 284 286 289 288 289 290 290 289 288 288 289 289 290 290 290 291 292 292 292 291 290 292 294 295 295 296 295 294 294 294 293 293 292 293 296 290 289 289 289 286 286 286 285 285 284 285 284 284 289 286 283 282 281 282 281 281 282 282 282 281 281 280 280 283 281 281 281 281 281 280 281 281 281 281 281 281
285 282 283 284 284 285 284 285 282 282 284 283 284 287 285 284 284 285 283 284 284 286 285 288 288 288 289 288 289 289 289 290 290 290 291 291 292 293 293 293 292 290 291 293 292 294 297 295 295 294 294 293 293 292 292 292 290 290 289 296 292 292 289 286 284 284 286 285 286 287 290 283 283 281 281 281 281 280 281 282 281 281 280 280 282 282 281 280 280 280 281 280 281 281 281 281 281
284 282 284 284 284 285 283 281 283 284 285 284 286 286 284 283 284 285 284 285 286 286 286 286 287 287 287 288 288 289 288 288 289 290 291 291 291 294 293 292 292 290 291 291 291 293 295 297 295 294 294 295 293 293 292 290 290 290 291 291 286 297 286 285 284 287 286 286 287 287 290 284 282 281 280 281 280 281 281 281 281 281 280 280 281 280 281 281 280 280 280 280 280 280 280 280 282
283 283 283 284 285 285 284 285 284 284 286 285 286 284 283 282 284 284 285 286 285 286 286 286 286 286 287 287 289 289 288 289 290 290 291 292 292 291 292 293 293 291 292 292 291 292 294 296 295 295 295 295 294 293 293 290 289 289 290 289 287 296 285 286 286 286 283 285 284 285 287 286 283 282 281 280 281 281 281 281 282 280 280 280 281 281 281 280 280 280 280 280 280 280 280 281 282
283 283 284 285 284 285 286 286 285 285 287 285 285 283 283 286 285 280 283 286 285 286 285 284 286 286 287 287 288 288 289 289 290 291 290 290 290 291 292 292 292 293 292 291 292 293 295 295 295 296 295 297 293 293 292 291 291 290 290 288 288 291 286 288 288 286 284 283 284 285 285 287 286 282 281 281 280 281 281 280 281 280 280 279 280 280 280 282 280 280 280 279 281 280 280 280 280
285 285 285 284 284 284 284 284 285 285 287 284 285 284 284 284 285 280 283 285 285 286 284 284 285 286 286 287 287 288 288 290 290 289 290 290 291 291 291 292 292 293 292 292 293 293 293 295 295 295 295 296 295 294 295 291 290 290 291 288 288 289 287 287 286 285 288 283 285 284 284 283 287 284 283 281 281 281 281 280 280 280 281 279 281 280 281 282 281 281 280 280 280 280 280 280 280
285 285 283 283 283 285 285 285 285 286 286 285 284 285 283 283 282 283 282 285 285 285 285 284 284 285 285 285 286 286 288 289 287 288 290 292 292 292 292 293 293 293 293 294 294 292 293 294 295 295 294 295 294 293 293 292 291 290 291 289 289 290 288 288 286 285 285 285 285 284 284 284 287 285 282 282 286 282 280 280 280 282 281 280 280 282 281 280 280 279 280 281 280 281 280 280 281
286 284 283 282 280 281 286 285 286 285 285 284 286 280 277 279 285 283 283 285 283 284 283 284 284 284 284 284 285 285 286 286 287 289 290 291 291 291 292 293 293 293 293 292 291 292 294 295 296 295 294 294 295 293 293 291 291 290 291 288 291 288 287 287 288 286 286 285 286 284 284 284 287 284 282 281 281 280 280 280 280 280 280 280 281 281 280 280 280 279 280 281 283 281 279 279 280
281 284 282 276 279 280 285 286 285 285 286 284 287 280 275 280 281 283 284 285 285 284 284 283 283 284 284 284 284 286 287 287 289 290 290 290 291 291 291 292 292 292 292 291 291 293 294 294 296 295 296 293 295 293 294 292 291 291 290 288 288 288 288 286 286 286 284 285 285 284 284 285 286 285 283 282 282 281 280 280 280 280 280 281 280 280 280 280 279 280 280 280 279 278 279 280 280
282 282 281 279 281 280 282 284 284 284 286 284 284 281 278 280 282 282 284 284 284 284 284 283 283 284 284 284 285 286 287 288 288 289 290 290 290 291 291 291 292 291 292 293 293 293 292 293 296 295 294 293 293 294 292 292 292 290 290 292 288 288 287 287 286 286 285 284 285 284 284 285 286 284 283 283 282 281 281 281 280 281 281 281 280 280 281 281 280 280 280 279 279 278 280 279 279
279 282 279 281 278 279 281 285 284 286 285 286 284 280 280 284 283 283 283 285 283 283 283 283 283 283 284 285 286 286 287 287 287 288 289 290 290 291 291 291 291 291 292 292 292 292 292 292 296 294 294 293 293 293 292 290 291 290 289 290 289 288 287 287 286 285 285 285 283 283 284 285 286 284 284 283 283 282 281 281 281 281 281 281 280 279 279 282 280 281 280 281 279 278 278 278 279
279 279 280 279 280 280 279 282 284 283 285 283 283 282 279 282 281 281 284 284 282 283 284 283 284 284 285 285 285 286 286 287 288 289 290 290 291 291 291 294 292 292 291 292 292 293 293 293 294 295 294 294 293 293 293 291 291 290 289 288 291 288 287 287 286 285 285 284 283 284 284 285 287 284 283 283 282 283 282 281 281 281 281 280 280 279 280 279 279 278 280 279 280 279 278 278 279
279 281 280 280 277 279 280 280 283 285 283 283 281 280 283 285 284 283 284 283 283 284 285 284 283 284 284 285 285 285 286 286 289 290 290 291 291 291 291 291 292 291 291 291 291 292 292 292 294 295 295 293 292 292 292 290 289 288 287 287 288 288 287 286 286 285 285 285 284 285 284 285 287 285 284 284 283 282 283 282 282 281 281 280 280 280 280 280 281 279 278 279 279 279 278 279 279
282 279 280 280 280 280 281 281 283 284 283 282 280 281 283 284 285 284 282 283 284 285 283 283 283 283 284 284 285 285 286 287 290 290 289 290 290 291 291 291 291 291 291 290 291 290 292 291 292 293 294 293 292 291 291 290 289 289 288 287 287 288 287 287 287 286 286 285 286 285 285 284 284 286 284 283 283 284 282 281 281 281 280 280 280 280 280 279 279 279 279 279 280 280 281 280 278
282 281 279 278 277 280 282 281 282 284 284 280 279 279 279 283 284 285 283 282 282 282 284 284 284 285 285 284 285 285 286 288 289 289 289 290 290 290 291 290 290 289 289 289 290 290 292 293 293 293 293 292 292 291 290 290 289 288 287 288 289 288 288 287 288 287 286 286 286 286 285 285 284 285 286 283 283 284 284 282 281 281 280 281 281 280 280 279 279 279 280 280 281 279 278 277 278
282 280 281 282 280 283 282 283 284 283 283 280 279 280 283 283 283 282 282 283 284 284 284 284 285 285 285 285 286 286 287 286 288 289 289 288 289 290 289 289 290 289 291 289 291 292 291 291 293 294 292 292 293 293 293 292 291 290 289 289 289 288 287 288 288 287 287 288 287 286 286 285 285 284 286 284 284 282 282 282 282 281 280 280 281 281 280 283 281 280 280 278 278 279 278 277 279
283 283 280 280 281 281 282 282 282 283 283 280 278 281 283 283 284 282 282 283 283 285 286 286 286 285 285 285 285 286 287 288 288 288 289 289 290 290 290 289 289 291 291 291 291 291 290 290 292 292 292 293 293 293 292 292 291 292 291 288 288 287 287 289 288 289 288 287 287 286 286 285 285 284 284 286 284 283 282 281 282 280 280 281 281 280 280 279 279 279 278 278 279 278 279 279 279
281 280 281 282 281 281 281 280 281 284 283 281 280 280 284 283 281 281 282 283 283 283 285 286 285 285 285 286 287 287 286 287 288 289 289 289 289 289 290 290 290 290 289 290 290 290 290 292 291 292 293 293 293 293 295 293 292 291 290 289 287 288 287 288 287 287 287 286 286 286 286 286 285 285 284 284 285 284 283 282 282 280 281 281 280 280 279 279 279 278 278 279 278 278 277 276 281
280 280 279 280 282 281 280 281 281 280 283 283 282 280 279 279 282 281 285 284 284 284 286 285 285 285 285 286 287 287 287 288 289 288 288 289 289 289 290 291 290 291 291 290 290 291 293 291 291 292 293 293 293 294 294 293 291 290 289 289 289 288 287 287 286 286 286 287 287 285 286 285 285 285 284 284 285 284 283 282 281 281 280 280 281 280 280 280 279 279 278 278 278 278 277 277 277
279 282 282 282 280 282 280 280 281 275 282 284 283 277 277 278 280 282 282 283 284 283 285 286 287 285 285 286 288 287 287 287 288 289 290 289 289 289 289 289 289 290 292 292 291 291 291 291 291 291 291 292 293 293 293 293 293 291 289 288 287 287 288 286 288 288 287 286 287 286 286 286 285 285 284 284 284 285 283 283 282 281 281 281 281 280 280 279 279 279 279 278 278 278 278 277 277
280 283 281 281 280 281 280 281 282 278 279 284 282 279 275 276 282 286 284 283 283 282 284 285 284 285 284 286 287 287 287 290 288 288 288 288 289 289 289 289 290 290 291 292 291 291 291 291 290 290 291 292 293 292 292 294 290 290 290 290 290 289 289 289 287 288 287 286 287 287 287 285 285 285 285 284 284 284 284 283 282 282 281 281 282 280 280 279 279 279 279 278 278 280 278 277 277
283 282 280 281 282 283 282 279 281 281 279 282 280 278 277 277 278 280 281 283 284 283 284 285 285 284 284 284 286 285 286 286 288 289 289 289 290 290 291 291 290 291 291 291 291 291 291 291 290 291 290 293 292 292 291 293 292 290 290 289 290 289 289 290 288 288 286 287 286 287 287 286 285 285 285 284 284 284 284 283 282 282 281 281 281 281 280 280 280 280 280 279 279 279 278 278 277
283 281 282 282 282 281 280 281 280 280 280 278 277 281 280 275 277 281 283 285 284 285 285 285 284 284 285 287 287 286 287 287 288 290 291 291 292 292 291 291 292 291 292 292 292 292 291 291 291 291 291 290 292 291 292 291 293 292 290 290 289 290 290 290 289 288 288 287 287 287 286 286 285 285 285 285 284 283 285 284 282 282 281 281 283 281 280 280 279 279 279 278 278 279 279 279 278
284 282 282 281 281 280 280 279 280 280 279 275 280 280 278 276 276 282 283 282 282 284 285 286 285 285 286 287 288 288 289 289 289 290 290 292 292 292 291 291 291 291 291 291 291 291 291 291 292 291 291 290 290 290 291 290 290 292 290 289 289 289 289 289 287 288 287 286 286 287 286 286 285 284 284 284 284 283 283 283 283 282 282 281 283 281 281 280 280 279 279 279 279 278 278 279 279
283 283 284 281 279 279 278 277 277 276 274 275 279 279 280 277 278 285 284 284 285 284 283 284 284 286 286 286 287 288 289 290 291 291 291 292 291 290 289 291 290 291 290 291 291 291 290 291 290 291 290 291 290 290 290 290 289 289 290 290 289 289 289 288 287 288 287 286 287 287 286 286 284 285 283 284 283 283 283 283 283 282 282 283 283 281 281 281 280 279 279 278 279 278 278 278 279
283 283 282 282 281 277 281 273 274 274 270 274 278 279 279 276 277 282 284 283 283 287 286 288 287 287 288 287 287 288 288 289 290 290 292 291 292 291 289 291 290 290 289 290 289 290 291 290 290 290 290 290 290 290 289 289 289 288 288 289 289 289 288 288 288 288 287 286 286 286 286 285 285 283 282 282 282 282 282 282 282 282 282 281 281 281 281 281 280 279 279 278 278 278 278 279 278
280 279 277 277 274 272 276 270 277 273 272 280 277 279 279 278 280 281 285 288 285 285 288 289 288 287 287 287 288 288 288 288 289 290 290 290 290 291 291 290 289 289 289 289 290 289 289 289 289 289 289 289 289 289 289 288 288 288 288 288 288 289 288 287 287 287 286 286 286 286 285 286 285 285 283 281 282 282 282 282 281 281 281 282 282 281 281 280 280 279 279 278 278 278 278 278 278
279 282 277 276 274 267 269 263 268 272 277 279 278 278 279 279 283 285 287 289 288 288 285 287 288 288 288 288 288 288 288 288 289 288 287 288 288 290 290 290 290 289 289 289 289 289 288 289 288 289 288 288 288 289 288 288 288 287 287 288 288 287 288 287 286 286 287 285 286 285 284 285 285 284 284 284 284 282 282 282 282 282 282 281 281 281 280 280 279 279 279 279 278 279 279 278 279
282 279 282 279 269 271 272 270 276 274 276 277 278 277 275 279 285 287 287 286 284 283 283 283 285 287 288 286 286 287 287 287 287 287 288 289 290 290 290 290 289 288 288 288 288 288 287 287 288 288 288 288 288 288 287 288 288 288 287 287 287 287 287 287 286 287 286 285 284 284 283 283 283 285 283 285 284 282 282 281 281 281 281 281 280 280 282 280 280 280 280 279 279 279 279 279 279
279 281 281 278 279 275 278 270 272 271 273 275 276 277 278 282 286 285 284 284 286 285 286 285 286 285 285 287 289 290 289 289 288 288 288 289 289 289 288 288 288 288 288 288 288 287 287 287 286 287 286 286 287 287 286 286 286 286 286 287 287 287 286 285 286 285 284 284 284 283 283 283 283 282 283 282 283 282 281 281 280 281 280 280 280 280 279 280 279 279 279 279 278 281 280 279 279
281 281 278 282 281 277 273 274 274 274 272 274 273 280 280 283 285 285 285 286 286 286 286 286 286 286 285 288 288 288 289 288 288 288 288 288 288 288 288 288 288 288 287 288 288 287 287 287 287 287 286 285 286 286 286 285 286 286 286 285 285 285 285 284 284 283 283 283 283 282 282 283 283 282 283 283 282 281 281 281 280 280 280 280 279 279 279 279 279 279 279 279 279 279 279 279 279
281 278 278 282 279 278 278 276 268 267 270 272 276 277 278 279 281 282 286 285 286 285 285 286 285 284 286 289 289 289 289 289 289 288 287 287 288 288 288 287 287 288 288 287 287 287 286 286 286 286 285 285 285 285 286 285 285 285 285 285 285 284 284 283 283 283 282 284 283 283 282 283 282 282 282 283 281 282 281 281 280 280 279 279 279 279 279 279 279 279 279 279 279 279 279 280 279
283 281 283 283 275 279 275 272 272 272 269 269 274 275 276 278 282 281 283 285 287 287 286 284 286 286 287 288 288 288 288 287 287 288 287 287 287 288 287 287 287 287 287 287 287 287 286 286 285 285 285 285 285 285 285 285 285 285 285 284 284 284 284 284 283 283 283 283 282 282 282 281 282 282 282 281 281 281 281 281 280 280 279 279 279 279 279 279 278 279 279 279 279 280 280 280 281
279 281 282 282 279 275 274 275 272 274 270 269 273 272 280 281 281 283 288 288 289 289 286 286 288 288 288 289 289 290 289 289 288 288 288 288 288 288 287 287 287 287 287 287 286 286 285 285 285 285 284 284 285 285 285 284 284 284 284 284 283 283 283 283 282 283 282 282 281 281 281 281 281 281 281 280 280 280 280 280 280 280 280 279 279 279 279 278 278 278 279 279 279 279 279 279 280
278 279 276 276 278 279 281 277 277 276 267 267 267 272 276 281 283 284 288 289 289 289 289 289 289 288 288 289 290 290 289 289 288 288 288 288 287 287 286 286 286 286 286 286 285 285 284 285 285 284 284 284 284 284 284 283 283 284 283 283 282 282 282 282 282 282 282 281 281 281 280 280 281 280 280 280 280 280 279 279 279 280 279 279 279 279 279 278 278 278 278 278 278 278 278 278 278
276 279 276 279 278 278 275 275 276 271 276 273 268 275 280 285 284 287 288 287 287 288 290 290 289 288 288 289 290 290 290 289 288 287 288 287 286 286 285 285 285 285 285 285 285 284 284 284 284 283 283 283 283 283 283 283 282 282 282 282 282 281 282 282 282 281 281 281 280 280 280 280 280 280 279 280 279 279 279 278 278 279 278 278 278 278 278 277 277 277 277 279 279 278 277 278 277
Wind_Speed
1 0 1 1 1 5 9 11 8 3 1 14 9 7 4 1 1 3 4 2 3 2 3 6 7 5 2 3 6 3 0 2 2 3 2 2 2 5 5 4 2 4 3 2 3 5 5 8 12 13 13 13 13 14 13 14 14 15 15 15 15 15 15 15 15 15 16 16 16 17 17 17 18 18 19 19 18 19 19 19 19 19 20 20 20 20 20 19 21 20 19 20 21 20 19 19 19
3 7 10 12 5 3 7 6 5 2 5 16 10 1 2 1 3 4 4 5 2 2 2 6 9 12 11 9 6 2 5 3 2 1 0 1 0 2 4 4 5 5 3 1 4 5 4 6 12 13 13 13 13 13 14 14 14 14 15 14 15 15 15 15 15 15 16 16 16 17 17 17 17 18 18 18 18 18 18 19 19 19 19 20 20 20 20 20 20 20 20 20 19 20 20 20 20
4 4 5 11 13 7 5 6 6 3 12 16 3 2 2 6 6 2 1 6 6 7 5 4 5 3 2 2 6 3 1 1 2 1 2 0 3 3 3 3 4 4 4 2 4 4 4 5 11 12 13 13 13 13 14 13 14 14 14 14 14 14 15 15 15 15 15 15 15 15 16 16 16 16 17 18 17 18 18 18 18 19 19 19 19 19 20 21 20 20 20 20 20 20 20 20 20
12 9 3 6 4 8 5 5 6 4 14 8 6 3 1 4 2 1 1 1 4 4 1 3 5 1 5 9 2 1 2 1 1 2 1 1 4 4 3 5 5 3 3 3 4 4 3 7 11 12 13 13 13 13 13 13 13 13 14 14 14 14 14 14 14 14 15 15 15 15 15 15 16 16 16 18 18 18 19 19 19 20 20 20 21 20 19 20 20 20 20 20 20 20 20 20 20
16 11 7 9 9 6 3 2 4 2 11 2 7 1 3 2 2 2 1 1 2 4 3 1 3 3 1 3 0 1 1 0 0 2 1 2 1 4 3 5 5 3 4 3 4 3 4 9 11 12 13 13 13 13 13 13 13 13 13 13 13 13 14 13 14 14 14 14 14 14 14 15 15 15 16 17 18 18 18 18 18 18 19 19 19 19 20 19 20 19 19 19 19 20 20 20 20
15 15 11 11 6 2 4 7 10 12 4 3 5 4 3 2 3 3 5 6 4 5 4 3 3 1 2 1 2 1 2 1 2 1 2 3 1 3 5 5 4 4 3 3 3 3 3 10 10 12 13 13 13 13 12 12 12 13 12 13 13 13 13 13 13 13 13 14 14 14 14 14 14 15 15 16 17 18 18 18 18 19 19 19 19 19 19 19 19 19 18 18 19 19 20 20 20
3 10 7 12 5 6 8 12 10 9 6 3 4 5 5 2 3 3 3 4 4 5 4 2 4 3 3 1 1 1 3 4 2 2 3 3 3 4 6 4 3 4 2 2 3 4 5 9 10 10 12 12 12 12 11 11 11 12 12 12 12 12 12 12 12 13 12 13 13 14 14 14 14 15 15 15 17 17 18 18 18 18 19 19 19 19 19 19 19 19 19 18 19 19 19 19 20
4 11 4 9 6 5 10 9 9 2 2 4 5 6 3 4 2 3 2 4 1 2 1 1 1 4 1 2 2 2 3 2 3 2 3 2 1 4 5 5 5 2 2 1 1 2 5 8 8 8 9 10 10 10 10 11 11 11 12 12 12 12 12 12 12 12 12 13 13 13 13 13 14 14 14 15 15 17 17 17 18 18 18 18 19 19 19 19 20 19 19 18 18 19 19 19 19
9 13 3 10 9 2 8 10 8 3 4 3 3 3 5 4 2 3 4 1 1 2 1 2 2 1 1 2 0 2 1 1 1 4 3 1 1 3 5 5 6 4 2 1 2 2 2 5 7 7 7 8 9 10 10 11 11 11 12 12 12 12 12 12 12 12 12 12 13 13 13 13 13 14 14 15 15 16 17 17 17 17 17 18 19 19 19 19 19 19 19 19 18 18 19 19 20
6 6 5 6 1 14 9 4 6 1 3 1 5 4 3 1 1 4 4 6 3 3 3 1 1 2 1 1 1 2 1 3 2 1 1 4 2 4 6 6 8 8 4 3 2 2 1 3 5 5 5 6 9 9 10 11 12 12 12 12 12 12 12 12 12 12 12 12 12 13 14 14 13 14 14 15 15 15 16 16 17 17 17 17 18 18 19 19 19 19 19 18 18 18 18 19 19
5 6 4 9 7 10 9 7 6 3 3 2 4 1 4 3 5 2 3 4 2 3 1 2 4 2 2 1 3 3 2 3 5 5 4 3 3 4 3 4 6 8 6 5 4 3 3 1 3 4 4 5 8 9 10 11 12 12 12 12 12 12 11 11 11 12 11 12 11 12 13 14 14 13 14 14 15 15 15 16 16 17 17 17 17 18 18 18 18 18 18 18 18 18 19 18 18
7 3 5 8 6 7 2 9 5 3 3 3 2 0 1 5 4 3 4 5 0 3 0 2 2 4 1 0 2 0 2 3 6 6 6 4 4 4 5 4 5 5 8 7 4 4 3 2 1 2 3 4 7 8 8 9 10 10 11 11 11 11 11 11 11 11 11 11 11 11 12 13 14 13 14 14 14 15 15 16 16 16 16 17 16 17 17 17 17 18 18 18 18 18 18 18 18
11 3 9 8 3 5 3 9 4 4 2 1 2 1 2 4 4 6 3 3 2 3 1 1 3 3 1 1 2 1 2 8 6 6 6 4 5 3 4 4 4 5 5 6 5 4 4 3 2 1 2 5 5 6 6 6 7 8 9 10 10 10 11 11 10 10 11 11 11 11 11 12 13 13 13 14 14 14 15 15 16 16 16 16 16 16 17 17 17 17 17 17 17 18 18 18 18
7 3 3 9 0 3 3 3 1 6 1 1 0 1 1 1 1 4 5 3 0 1 2 1 1 3 0 1 2 3 7 7 6 6 5 5 4 4 5 4 5 4 5 6 5 5 4 4 3 2 4 3 2 2 4 5 5 6 7 8 9 9 10 11 10 9 10 10 10 10 11 11 12 13 13 13 13 13 14 15 15 16 16 16 16 16 16 16 16 16 16 17 17 17 18 18 18
12 3 6 5 4 3 0 5 8 4 5 1 1 2 2 2 3 2 6 4 1 3 2 0 2 2 4 5 5 7 8 6 7 5 4 3 4 4 5 5 5 4 4 5 5 4 4 4 4 3 4 3 3 2 0 1 3 5 5 6 6 7 8 9 10 8 9 8 9 10 10 10 11 12 12 12 13 13 13 14 15 15 15 16 16 16 16 16 16 16 16 16 16 17 17 17 17
5 7 5 6 2 5 1 5 0 5 3 4 0 7 5 1 0 3 3 3 2 1 1 2 1 2 1 5 4 9 8 5 6 4 4 5 2 3 4 4 4 3 3 4 4 4 4 4 4 3 3 3 3 2 2 1 2 3 4 4 4 5 5 6 7 7 7 7 7 8 9 6 6 6 12 8 12 13 13 11 14 14 15 15 16 16 16 16 16 16 15 15 15 16 16 16 16
3 7 8 4 4 3 3 3 4 5 2 2 0 5 2 0 1 0 0 1 5 0 2 1 1 0 3 4 4 3 4 5 4 4 5 4 2 2 2 2 2 2 2 2 4 4 4 4 4 4 4 4 4 3 3 2 2 1 2 2 3 4 3 3 5 5 5 6 5 7 7 3 3 3 4 4 9 6 12 12 13 14 14 15 15 15 16 16 16 16 15 15 15 15 15 15 14
6 6 5 6 2 4 5 4 5 1 6 3 4 2 7 3 1 0 1 4 2 1 3 2 2 2 1 2 0 4 5 6 5 6 5 5 3 3 3 4 2 5 4 4 4 3 4 4 5 4 4 4 4 3 3 2 2 2 1 1 1 1 2 3 1 1 3 2 6 4 4 2 3 2 3 5 4 4 6 12 12 13 14 14 15 15 15 15 15 15 15 15 15 14 14 6 6
7 4 5 6 2 1 4 4 4 4 3 5 2 1 5 4 4 1 1 1 1 1 1 1 0 2 3 3 4 6 5 5 5 5 6 6 4 5 6 5 4 4 4 4 6 5 5 5 4 5 5 5 4 4 3 2 2 2 3 2 1 2 2 2 1 1 1 2 2 3 3 3 3 2 2 4 3 8 6 11 11 12 13 13 14 15 14 14 14 14 15 14 14 14 7 5 5
2 7 7 1 2 0 1 6 4 2 7 4 2 2 1 5 3 1 2 3 0 5 4 1 2 3 4 4 3 5 5 5 5 5 6 6 6 6 5 5 5 5 6 6 7 5 5 5 6 5 5 5 4 4 3 2 3 3 3 2 2 1 1 3 2 1 0 1 1 1 3 2 3 3 5 6 5 3 4 7 9 9 9 10 12 8 10 11 13 13 13 13 9 5 5 5 5
2 8 3 4 3 4 2 1 5 5 7 4 4 1 1 3 4 3 2 3 4 6 6 7 10 8 9 7 6 5 5 5 5 5 6 6 6 5 6 7 7 8 8 5 3 6 6 6 5 5 5 5 4 4 4 4 4 3 3 3 3 2 3 3 3 2 1 0 0 1 1 2 3 3 3 4 4 4 4 4 4 4 3 4 7 4 5 5 6 6 5 6 5 5 6 6 5
5 2 1 5 3 5 1 2 5 5 3 7 4 5 4 1 1 2 8 5 6 7 8 10 7 10 11 9 8 5 6 7 7 6 7 8 8 8 6 6 6 4 2 3 8 6 7 7 6 6 5 5 5 6 6 5 6 5 4 4 3 2 3 3 3 2 2 1 0 0 1 3 4 4 3 3 4 4 4 4 4 4 4 4 3 5 5 5 5 5 5 5 5 5 5 5 5
8 2 2 2 2 5 1 1 1 5 3 6 5 3 2 3 1 3 7 8 5 7 6 10 9 10 12 9 6 6 7 8 8 8 8 7 7 7 7 6 6 5 5 8 6 7 7 5 6 5 7 6 6 5 5 5 6 6 6 5 5 3 3 3 3 3 3 2 1 0 1 2 3 2 3 3 4 4 4 4 4 3 4 3 4 4 4 4 5 5 5 5 5 5 6 5 5
7 5 1 3 5 5 2 2 4 4 10 4 2 1 3 1 2 1 3 5 6 4 5 8 7 5 5 7 8 10 10 10 10 9 9 10 9 9 9 8 6 4 4 6 5 7 6 8 7 6 7 6 6 5 5 5 4 4 4 3 4 4 5 4 3 3 2 3 2 1 1 1 0 2 2 3 3 3 3 3 3 3 3 4 3 3 4 5 5 6 5 5 5 5 5 5 5
4 5 1 2 3 1 1 4 5 4 2 1 3 1 4 5 3 1 4 6 4 4 0 4 5 5 6 7 8 7 7 6 7 8 6 6 7 8 6 6 5 4 6 7 7 6 8 8 7 8 6 7 6 6 5 5 4 4 4 4 5 4 5 5 4 2 3 3 2 1 1 0 1 0 2 2 1 3 3 3 4 3 3 3 3 4 3 4 5 5 5 5 5 5 5 6 5
1 3 3 3 3 1 1 4 2 1 1 1 2 3 4 5 5 3 8 7 6 2 4 5 6 6 8 8 9 8 8 9 8 6 9 8 6 5 8 7 6 5 9 8 7 8 7 6 7 10 9 8 7 6 6 5 6 6 5 5 6 4 6 4 3 3 3 4 3 2 1 1 2 2 2 2 1 3 3 3 3 4 3 2 2 4 4 3 5 6 4 4 5 5 5 5 5
3 5 5 7 2 3 1 1 0 0 1 0 2 2 2 1 3 6 3 8 5 3 5 4 8 9 9 7 7 7 8 10 10 9 5 5 6 7 9 7 6 9 6 7 7 8 7 6 8 8 8 6 6 7 6 6 6 7 7 6 5 5 4 3 3 3 3 4 4 3 3 1 2 2 2 2 2 2 3 3 4 3 3 3 2 3 3 4 4 4 4 5 5 5 5 5 5
7 7 6 6 3 2 1 1 1 0 1 1 2 1 1 2 0 7 4 6 5 7 5 6 6 7 8 8 7 7 7 8 7 5 9 8 9 9 9 9 10 9 7 9 8 7 5 8 10 8 8 7 7 7 6 6 7 7 6 6 6 5 4 5 4 4 4 5 3 4 3 3 2 2 1 2 3 2 3 3 3 3 5 3 2 2 4 4 3 4 4 3 4 4 5 5 5
4 5 6 2 4 1 1 2 1 1 2 2 1 1 2 1 4 8 6 5 5 6 6 6 7 7 7 6 6 5 9 8 6 6 11 11 9 9 11 11 10 9 8 9 10 5 8 8 8 9 7 6 8 8 8 7 6 6 6 6 6 4 5 4 5 5 5 4 4 4 4 4 3 3 3 3 1 2 3 3 4 4 4 3 2 2 3 3 3 4 5 3 4 4 5 6 4
1 4 4 3 2 1 2 0 0 1 2 3 1 1 3 6 12 7 1 7 4 4 5 6 5 5 5 5 5 6 6 6 8 11 10 10 9 8 10 10 9 9 8 7 5 6 7 5 6 5 6 8 9 7 6 6 6 6 5 6 5 5 5 5 5 5 4 5 4 4 4 4 4 4 4 4 3 3 3 3 3 4 4 3 2 2 3 3 5 4 5 5 5 5 6 6 6
3 1 2 2 1 1 1 1 0 0 1 4 1 1 4 5 6 6 3 6 10 8 7 6 6 5 5 5 5 7 9 9 11 11 11 10 9 8 10 9 8 8 6 5 7 11 6 7 6 6 7 8 7 8 8 7 5 6 6 6 6 5 5 6 6 5 5 6 4 6 4 4 4 4 4 4 4 3 3 4 4 5 4 3 2 2 2 3 3 4 4 5 5 5 4 5 5
1 1 1 1 0 1 3 2 3 2 0 4 3 1 6 4 6 3 5 5 6 8 7 6 6 5 6 6 7 8 11 9 9 9 9 10 9 8 9 11 8 7 9 10 8 6 7 7 6 7 6 8 9 9 8 7 7 7 6 6 6 5 6 6 6 6 6 5 5 5 4 4 4 4 4 4 4 4 4 5 5 4 4 3 3 3 2 5 4 5 4 2 6 6 5 7 5
2 1 2 2 1 2 2 1 2 2 0 0 2 4 5 3 3 2 4 6 5 6 6 6 6 7 7 8 8 8 8 8 7 9 10 9 8 8 9 9 9 10 10 9 9 7 7 7 7 8 9 11 9 8 7 5 6 6 6 6 7 6 6 6 6 5 5 5 6 6 5 5 5 5 4 4 4 4 5 5 5 4 3 3 4 3 3 3 3 5 4 3 2 5 6 7 7
1 1 1 2 1 0 0 2 1 0 1 1 0 1 6 4 6 3 3 5 5 6 8 6 6 7 8 8 7 7 7 7 10 10 13 10 10 9 9 9 9 9 8 9 9 10 11 9 9 10 9 8 8 9 8 7 6 5 5 6 5 6 6 6 6 5 6 6 5 6 5 5 5 5 5 4 5 5 4 5 5 4 4 4 4 3 5 3 3 3 5 3 2 4 6 7 8
2 1 0 0 0 1 1 1 1 0 1 1 1 3 12 12 8 5 6 4 6 9 9 6 7 7 8 7 7 7 8 8 13 11 10 9 9 9 9 8 8 7 7 8 7 7 6 6 7 7 8 7 7 6 4 4 3 3 2 3 4 5 5 5 5 5 6 6 6 6 5 6 5 5 5 4 5 5 5 5 5 4 3 4 4 5 5 4 3 3 3 6 4 3 5 6 7
1 3 1 1 2 1 0 2 1 1 1 1 2 5 7 11 9 5 4 6 8 10 4 5 7 7 7 6 6 7 8 11 13 8 6 6 7 8 9 8 7 7 7 6 6 5 6 5 5 5 6 6 4 3 3 4 3 5 5 3 5 6 5 5 5 6 5 6 6 6 6 6 5 5 5 5 5 5 5 5 5 4 4 3 4 5 6 5 5 5 5 4 6 4 3 6 5
2 1 2 2 2 2 1 2 2 1 0 3 3 4 5 10 9 7 4 3 5 6 8 8 8 7 7 6 7 8 8 12 7 5 6 8 8 8 7 5 6 5 5 5 5 6 7 8 6 9 7 4 6 6 5 6 5 3 3 6 8 6 6 5 6 6 6 7 6 6 6 6 6 6 5 5 6 6 6 5 4 4 3 3 4 6 5 5 4 4 3 3 4 5 3 2 4
2 2 3 0 1 0 1 0 1 0 1 1 1 5 8 9 7 5 1 5 8 10 10 10 10 8 7 7 8 8 9 5 6 6 6 5 6 6 5 5 5 5 8 5 8 9 6 5 6 7 4 5 7 7 7 6 6 6 6 7 7 6 6 6 7 6 8 7 6 6 6 6 6 6 6 5 6 6 6 5 5 5 4 5 5 4 4 4 4 4 3 5 1 2 4 3 5
1 4 3 2 0 3 4 1 2 0 1 5 2 5 9 8 6 4 3 7 4 8 10 9 8 7 7 7 7 8 6 8 6 7 6 4 4 4 3 4 5 7 5 6 5 3 4 5 6 5 5 6 7 6 6 7 6 5 5 4 5 4 4 5 5 5 4 6 6 6 6 6 6 6 6 5 6 6 6 6 6 5 4 4 5 6 4 6 4 4 4 4 7 2 3 4 3
3 1 0 1 2 1 1 2 3 0 1 2 2 4 9 7 4 4 5 6 4 4 6 9 5 7 8 8 6 6 6 7 7 6 6 7 5 4 3 4 4 3 4 4 4 5 4 5 6 6 6 6 6 7 8 7 5 5 4 2 2 3 3 2 3 4 3 3 6 5 6 6 6 7 6 6 6 6 6 7 5 4 5 4 5 6 6 7 4 5 4 3 2 6 2 3 0
1 2 2 1 0 0 1 1 4 3 0 0 1 3 6 4 2 3 1 2 4 5 2 5 6 7 6 5 5 5 7 5 6 6 6 5 5 4 4 5 3 4 4 5 5 5 4 6 7 6 6 7 6 6 8 5 3 2 2 1 1 3 3 3 3 5 4 4 4 5 7 4 6 7 6 7 7 7 6 6 5 6 5 5 5 6 7 7 5 4 4 3 3 4 6 2 3
2 1 1 1 1 0 2 3 3 2 1 1 2 2 3 4 5 6 7 2 2 2 2 6 6 5 4 6 8 3 4 5 5 3 2 3 2 4 4 3 3 4 5 6 4 5 5 7 5 5 5 5 7 6 6 5 6 6 4 4 5 5 7 4 7 8 5 5 6 4 4 6 6 7 7 7 7 6 7 6 5 6 6 6 6 6 6 5 5 5 4 4 4 3 5 5 5
1 1 2 2 2 2 1 3 1 1 1 2 2 2 2 4 2 3 2 2 5 4 2 6 5 6 5 7 6 4 2 0 1 1 1 3 3 3 4 4 4 3 4 4 4 5 5 6 5 5 5 5 4 4 4 4 5 5 7 8 7 7 8 6 4 4 5 5 5 6 6 5 6 7 7 7 7 7 6 6 6 6 6 6 4 5 6 7 5 5 3 4 5 3 2 6 7
0 0 3 3 2 1 0 3 2 0 1 3 5 3 2 3 4 3 4 1 4 4 6 6 5 5 4 4 4 4 2 2 0 1 1 1 1 1 2 3 3 3 4 4 3 3 4 5 4 4 4 4 4 4 4 6 7 6 6 7 7 7 7 9 5 4 3 3 4 6 5 6 6 6 7 7 7 7 7 7 6 6 6 6 5 6 7 6 5 4 4 5 4 4 5 6 7
1 1 2 1 1 1 2 1 1 0 0 5 2 2 0 3 4 2 1 2 4 6 7 5 4 3 2 1 1 2 3 3 2 3 1 1 1 2 2 4 3 4 5 5 4 4 4 3 3 2 3 3 4 2 4 5 6 6 7 5 6 6 6 7 5 3 4 4 5 5 5 6 5 5 6 7 6 7 7 7 6 6 6 7 5 6 6 5 6 6 5 5 5 5 6 6 5
1 1 2 3 2 2 1 1 2 1 1 4 2 1 1 7 4 1 2 1 6 7 8 8 6 4 3 3 2 2 1 1 1 1 1 1 1 1 1 1 4 4 3 3 4 5 5 5 5 5 5 4 3 3 2 4 5 5 5 5 7 7 5 6 4 5 5 4 4 6 6 6 6 5 6 5 5 6 6 6 6 7 7 6 5 6 5 6 6 5 6 5 5 6 5 6 7
0 3 1 2 3 2 1 4 2 2 0 5 1 0 1 4 4 8 6 6 8 6 3 4 4 3 4 4 5 4 4 3 2 1 1 0 0 1 3 4 3 4 4 4 5 5 4 5 5 6 5 4 4 4 1 3 3 4 5 5 6 6 6 5 5 6 5 4 5 6 5 6 4 6 4 5 5 5 5 5 6 6 5 5 5 6 7 6 6 5 5 4 5 6 6 6 6
1 0 1 1 1 4 1 3 4 1 4 2 2 1 1 3 4 5 8 3 4 10 8 9 7 7 6 5 5 4 4 4 2 2 1 1 1 3 3 3 3 3 4 4 4 4 4 4 5 6 6 6 6 5 5 3 1 3 4 4 5 6 5 5 5 6 5 5 5 6 6 5 5 4 3 4 5 4 4 4 4 4 6 5 7 6 6 5 5 3 4 5 5 5 5 5 5
3 3 4 1 4 5 2 3 1 2 4 0 1 0 1 7 10 4 6 10 6 7 9 11 10 8 7 5 5 4 4 4 4 4 2 1 1 0 1 1 2 3 2 3 3 3 4 4 4 6 6 6 6 5 5 4 4 3 2 3 4 4 4 4 4 4 4 4 4 5 5 6 6 5 3 3 6 5 4 5 5 6 6 6 6 4 5 4 4 4 4 4 5 6 6 5 6
2 1 2 2 1 2 1 4 1 4 4 2 1 1 3 5 9 9 9 11 11 9 8 7 10 10 9 7 5 5 5 5 5 4 3 2 2 1 0 0 1 2 3 3 3 4 3 4 4 5 5 5 5 5 5 5 5 4 4 1 2 2 2 1 2 2 3 3 2 3 4 3 5 4 4 4 4 3 4 5 4 5 5 5 4 4 4 4 4 5 4 5 6 6 4 6 7
1 1 1 2 4 2 1 2 2 3 4 2 2 1 5 1 2 1 8 5 3 3 4 4 5 6 7 6 5 5 5 5 4 4 4 4 3 2 2 1 1 2 2 3 3 3 3 4 4 5 5 5 5 4 4 5 4 4 4 4 4 2 0 0 1 1 1 2 2 2 3 3 3 4 4 4 4 3 4 3 4 4 4 4 4 4 4 4 4 3 4 5 5 5 5 6 6
1 1 3 3 2 5 2 2 2 1 2 3 1 5 4 4 2 4 2 3 1 1 2 3 4 4 4 4 5 6 6 5 5 5 4 2 3 3 2 2 2 2 2 2 3 2 4 3 4 4 4 4 4 4 4 3 3 3 4 5 5 4 4 4 4 3 2 1 1 2 3 3 2 2 3 3 4 3 3 3 2 4 3 3 3 4 4 4 4 3 4 4 6 4 5 6 7
1 1 1 1 1 4 4 1 0 0 2 6 1 7 6 8 5 1 2 1 3 0 3 3 5 5 4 6 6 6 6 6 5 5 5 4 2 2 3 4 4 3 2 2 1 1 3 3 4 5 4 4 4 4 3 3 3 4 4 4 4 5 5 5 4 4 3 2 3 3 3 2 2 3 4 3 4 4 3 1 2 3 3 2 3 3 3 3 3 3 5 5 6 5 4 6 6
1 0 2 1 1 1 1 1 2 3 2 6 1 4 6 3 5 2 1 2 7 6 6 7 5 5 6 8 7 8 8 7 6 5 4 4 4 4 2 2 3 3 1 1 2 1 3 3 4 5 4 4 4 4 4 4 4 4 4 5 4 4 4 4 4 4 3 5 5 4 4 6 4 3 3 3 4 5 4 3 2 3 2 2 2 3 3 3 3 4 5 5 6 5 5 6 6
0 1 0 0 0 0 2 3 1 0 2 4 5 2 5 6 8 0 6 8 11 11 8 5 8 8 10 8 7 6 5 5 5 5 4 4 4 4 4 4 3 2 1 1 1 2 3 3 4 4 3 2 2 2 3 3 4 3 3 4 4 5 4 5 4 4 5 6 5 4 4 3 4 4 5 5 5 5 5 5 4 4 3 3 2 3 3 3 2 4 4 5 5 4 5 7 6
1 0 0 1 1 1 2 3 2 3 3 3 6 3 5 7 6 11 11 15 15 12 8 12 13 12 11 9 8 9 8 7 6 6 5 5 5 5 5 5 5 4 3 1 1 2 4 3 5 4 3 3 4 5 4 4 4 4 4 4 4 4 4 5 4 5 6 5 4 4 4 5 4 4 4 4 5 4 5 5 5 4 4 4 4 3 2 3 3 3 4 5 6 4 5 7 7
0 1 2 1 1 2 1 1 2 2 3 3 2 6 7 7 7 7 11 12 15 14 15 14 12 11 10 9 10 9 9 8 7 6 6 5 5 4 4 4 4 3 2 1 1 2 3 4 4 4 4 4 4 4 4 3 4 4 5 5 5 5 5 5 6 5 5 4 4 4 4 3 4 5 4 5 5 5 4 4 5 5 4 4 4 5 4 3 3 4 4 4 5 4 5 6 5
4 8 7 8 6 2 1 7 1 1 2 4 3 9 9 11 3 8 7 5 5 9 13 13 10 10 10 9 8 9 9 8 7 6 6 6 5 4 4 3 3 4 3 2 1 2 4 4 3 3 4 4 4 4 3 3 4 4 5 5 5 4 4 5 6 5 5 4 4 4 3 4 5 4 4 5 5 4 4 4 4 5 5 4 4 4 4 4 4 4 5 4 5 5 5 7 5
Wind_Direction
346 119 123 278 7 58 49 31 72 332 38 66 80 7 88 353 139 65 21 341 52 3 348 24 54 43 108 143 121 131 309 122 218 124 200 226 212 187 188 189 78 82 109 31 356 28 10 345 20 18 23 27 30 30 29 30 30 29 30 31 32 33 34 34 35 37 36 37 37 35 33 34 35 31 32 31 30 28 28 27 28 28 27 27 27 26 26 25 26 23 23 19 18 19 20 19 17
58 92 81 57 20 78 22 95 88 25 61 82 43 15 88 282 68 45 77 74 90 140 127 92 68 74 80 99 115 96 25 357 170 193 224 181 96 234 195 174 122 121 114 65 34 28 9 332 18 20 22 27 29 30 30 30 31 31 31 32 34 36 35 35 37 37 38 36 36 34 37 33 34 33 33 33 32 31 30 30 29 28 28 27 27 26 26 26 26 24 23 23 22 22 20 20 18
64 28 52 65 38 68 97 49 84 46 88 78 23 13 295 64 82 235 127 103 133 151 143 101 110 94 36 40 23 50 244 325 31 21 99 358 108 236 234 126 119 125 123 89 54 28 4 358 22 23 23 27 31 30 31 31 32 33 32 34 36 36 38 38 40 40 39 38 37 37 34 36 32 33 31 34 34 32 32 31 30 29 29 28 27 26 25 26 25 24 24 23 23 22 22 21 21
59 27 76 81 52 33 47 22 63 87 82 111 87 327 44 114 163 175 57 120 151 155 191 19 52 338 74 52 70 39 72 68 232 137 103 221 196 219 197 124 109 112 91 82 74 44 358 21 27 23 25 29 30 32 32 33 34 34 35 36 37 38 40 42 41 41 40 39 38 38 36 34 34 32 29 30 33 31 30 29 28 27 26 26 26 27 26 26 26 25 25 25 24 24 23 22 21
64 48 34 90 93 22 89 83 77 16 79 189 127 240 113 131 130 57 5 80 46 100 59 86 65 3 97 131 62 131 232 223 333 172 172 252 236 210 139 127 125 120 101 95 89 61 16 37 28 28 29 29 31 33 33 36 35 35 36 38 38 40 42 42 42 42 41 40 40 39 38 35 34 33 32 28 31 32 31 31 30 29 29 29 28 27 27 26 26 26 26 25 25 24 23 22 22
79 69 35 68 67 146 57 65 53 61 70 151 97 148 160 174 108 103 69 51 46 58 96 60 147 151 16 332 148 120 215 112 206 66 144 224 201 191 133 127 128 125 124 107 96 80 52 43 34 33 30 31 33 34 36 36 37 38 40 40 40 42 42 43 43 42 41 41 39 39 38 36 34 34 34 29 31 31 31 30 29 28 26 28 29 28 27 27 26 25 26 26 26 25 24 23 22
105 65 357 51 45 53 90 80 85 84 40 98 108 140 156 173 154 96 45 49 33 61 8 94 99 85 67 304 358 257 239 220 83 197 162 193 192 129 124 119 128 118 124 104 82 74 60 51 42 36 33 33 36 37 39 39 40 40 42 42 43 44 43 43 42 42 41 40 39 38 37 36 35 34 33 32 29 30 30 29 28 28 28 26 25 26 26 25 25 26 26 24 24 25 26 24 23
9 94 359 79 79 45 64 78 68 344 67 71 153 116 159 150 150 76 60 86 100 65 16 82 164 103 265 38 191 283 335 209 184 169 204 154 103 82 122 131 114 121 131 104 86 73 64 62 53 41 37 37 38 41 41 42 42 43 41 42 43 44 44 44 43 41 41 39 38 37 36 36 35 34 33 33 30 30 30 30 29 27 26 26 26 26 26 26 25 26 26 26 24 22 24 24 24
26 81 14 75 64 46 76 67 91 352 99 73 47 126 139 148 165 112 42 45 65 60 141 211 221 69 247 29 140 267 295 319 145 148 154 141 98 127 116 128 125 155 163 148 126 99 77 71 60 52 42 40 41 43 43 43 43 42 41 42 43 42 42 43 42 41 39 38 37 35 35 34 34 32 31 31 31 29 28 29 27 27 26 25 24 25 26 26 26 26 26 25 24 24 23 22 24
59 65 41 96 188 78 85 12 67 329 89 147 135 136 128 154 50 81 114 53 95 67 347 336 186 120 95 124 301 282 235 226 129 89 201 185 144 101 137 152 147 147 165 187 163 144 130 88 77 73 53 45 46 42 43 43 42 41 40 41 40 40 40 40 40 38 35 35 35 35 34 33 31 31 28 27 29 28 27 26 27 26 26 25 25 25 24 25 24 25 26 25 24 22 23 23 23
41 8 101 75 45 88 79 96 80 51 67 27 53 43 146 112 105 65 93 134 45 104 220 53 34 117 96 264 206 240 252 171 132 178 216 199 131 106 129 155 153 146 160 188 185 172 141 158 120 95 67 58 47 43 43 43 42 42 41 39 38 38 36 35 36 35 32 33 33 33 32 31 30 28 27 23 23 24 23 23 24 24 24 25 25 25 24 25 25 25 26 26 25 23 22 22 22
68 33 31 89 50 108 172 106 97 94 58 49 85 350 296 120 87 94 103 110 103 71 157 104 210 143 61 267 273 272 176 214 177 191 198 183 129 161 144 172 151 158 156 174 176 177 175 179 153 107 112 75 56 48 47 45 42 45 43 40 39 38 35 34 33 33 31 31 32 30 30 27 27 26 24 22 17 19 19 17 18 21 22 23 25 24 25 25 26 26 26 27 26 24 22 22 21
98 101 85 74 115 74 141 93 120 100 69 45 138 339 66 79 139 152 162 105 46 116 7 286 143 115 229 197 261 297 205 220 210 186 203 174 166 152 130 155 159 153 156 157 158 184 191 189 190 191 149 88 64 58 54 50 50 48 44 40 41 40 36 33 33 31 29 30 31 31 28 25 21 23 20 19 17 15 17 16 15 20 22 23 24 24 25 25 27 26 27 26 26 25 23 21 20
92 158 118 104 329 78 89 111 105 120 96 195 258 34 78 94 269 173 126 102 316 127 221 160 132 145 142 26 295 229 229 221 217 201 190 187 140 139 152 164 163 167 164 156 164 181 188 193 185 135 93 102 93 70 41 59 56 47 44 41 41 41 37 34 31 32 29 30 32 33 31 24 20 18 20 16 17 14 17 16 14 18 21 23 23 22 23 24 25 26 25 26 26 24 22 20 18
103 124 82 91 101 78 6 113 175 151 155 159 189 83 63 350 111 121 150 134 257 207 288 339 176 110 238 157 271 215 214 215 198 189 191 196 138 152 163 167 175 183 173 174 164 165 188 181 181 142 132 129 137 139 214 355 66 40 43 45 41 41 36 33 32 30 30 28 32 32 32 24 21 16 22 13 16 13 15 16 14 15 20 21 22 22 21 22 23 24 24 24 24 24 20 18 17
122 85 76 92 83 113 247 124 31 115 167 150 209 119 91 345 160 113 250 147 202 337 91 226 359 206 199 173 226 207 206 179 190 152 155 152 166 166 174 177 173 209 200 176 176 200 171 169 170 151 142 151 167 177 200 246 333 52 48 57 50 44 39 36 35 35 32 28 24 21 22 23 11 7 20 9 14 12 11 15 14 14 18 19 20 20 20 21 20 20 22 21 21 21 18 14 12
68 82 67 41 100 106 195 127 158 175 212 191 157 134 129 200 311 208 103 85 109 235 39 263 240 46 184 213 252 199 170 148 139 130 113 145 147 214 302 297 281 300 278 245 194 200 190 171 182 161 169 170 172 184 197 220 247 140 24 57 71 47 55 51 51 41 40 7 18 359 359 356 4 356 356 357 13 6 8 14 14 14 17 18 18 18 18 19 19 19 20 19 18 16 16 10 4
56 55 102 57 161 114 199 162 190 210 121 183 160 147 114 124 310 307 38 24 81 354 92 305 360 12 273 278 88 139 138 137 154 136 155 174 172 215 262 265 279 246 247 253 251 223 192 199 180 178 173 189 187 187 204 203 247 189 201 189 154 107 90 102 89 82 38 1 354 355 344 346 348 329 341 9 10 9 356 14 13 14 16 16 17 15 17 17 18 19 20 19 18 15 7 357 343
76 99 71 126 204 202 147 183 193 118 174 168 170 138 139 193 139 247 104 263 135 98 286 349 17 324 17 63 103 121 136 148 147 159 174 193 205 215 227 247 259 271 276 250 254 231 213 200 187 179 188 190 185 204 198 215 175 175 196 196 200 128 169 145 176 109 71 23 345 353 349 345 337 347 335 15 22 12 1 12 11 12 14 14 17 14 14 12 16 14 13 17 13 6 358 339 338
5 110 86 322 222 282 98 141 180 144 136 127 105 183 169 185 134 211 199 200 25 193 193 304 213 222 201 185 153 156 152 174 170 168 187 205 212 217 229 240 249 243 240 220 224 229 219 209 203 190 187 191 184 204 215 189 174 194 173 188 169 164 141 169 185 192 196 63 346 346 2 345 0 349 354 11 11 359 346 354 1 8 5 8 14 12 5 359 7 358 358 3 358 345 343 339 333
309 66 135 163 167 96 327 145 140 129 129 149 140 98 154 211 178 162 183 123 260 254 232 173 204 196 197 199 192 178 175 178 200 191 199 217 229 232 225 223 220 232 222 217 228 227 215 214 202 204 193 188 185 187 181 188 188 172 178 176 178 175 160 178 200 201 192 134 312 19 7 17 359 355 0 2 1 352 353 353 349 356 349 359 5 5 359 346 353 347 342 344 339 339 336 332 332
84 85 128 124 128 70 266 107 107 121 104 115 128 121 214 109 50 173 150 171 226 214 227 223 209 186 178 190 204 189 186 192 200 203 211 214 221 234 241 255 264 261 248 190 219 220 220 211 200 198 189 192 193 177 186 191 168 173 184 186 164 187 168 191 208 202 191 176 235 321 41 21 1 359 9 2 354 2 349 355 343 347 356 355 353 358 350 349 342 339 337 331 328 329 330 324 321
94 6 44 40 144 123 271 45 101 122 104 120 145 199 104 166 231 203 178 198 238 219 204 206 208 187 190 174 166 189 195 201 207 210 212 225 238 245 248 232 224 214 201 215 211 216 216 208 208 189 193 194 204 191 189 182 187 186 185 185 162 199 188 188 230 207 204 194 218 197 57 9 359 353 4 357 350 356 343 345 342 346 350 351 342 1 344 339 337 335 331 324 321 334 331 328 322
80 133 119 46 78 78 313 107 101 97 117 166 200 73 167 180 243 188 190 242 229 263 226 207 191 187 148 159 186 190 195 199 211 214 210 214 216 228 224 232 219 211 186 229 222 217 209 212 203 190 198 190 202 194 184 192 196 185 201 195 181 195 184 210 219 214 189 191 201 185 129 120 36 347 331 355 330 346 339 324 326 350 349 336 327 357 349 332 335 334 328 327 332 332 331 326 324
78 90 172 163 61 82 47 95 76 91 89 161 111 143 246 181 207 128 244 232 237 264 172 152 146 151 171 176 190 201 205 218 224 228 236 236 228 232 240 239 245 179 212 224 220 214 221 211 192 201 198 198 198 189 192 195 186 196 206 189 199 210 196 211 206 195 170 203 199 178 165 317 349 36 294 294 324 337 324 323 322 325 332 323 348 338 351 329 329 333 329 323 325 324 323 322 324
100 158 117 85 97 78 12 67 51 95 157 79 96 251 287 246 281 244 226 217 216 218 113 138 140 156 181 195 195 195 206 213 220 229 227 228 234 241 249 239 232 214 219 215 202 215 218 203 196 203 198 195 194 185 199 181 192 195 201 203 207 204 209 210 207 203 198 182 208 205 192 170 209 230 249 274 333 310 315 316 311 311 319 296 358 336 328 326 321 329 329 326 327 327 321 312 329
116 108 97 110 132 87 354 128 134 134 147 222 156 270 273 298 70 284 255 213 183 169 145 162 155 181 196 199 206 208 202 214 214 219 237 243 242 226 239 237 230 229 219 230 220 218 213 192 210 208 202 195 183 194 194 197 187 200 202 204 204 207 212 207 215 211 202 204 203 206 197 200 198 202 220 252 263 271 303 312 301 302 308 302 315 318 316 319 312 318 312 315 326 323 314 311 320
96 121 77 35 10 27 10 42 295 5 271 155 141 237 301 298 102 232 228 208 185 165 177 174 183 195 201 210 209 215 215 224 225 208 222 226 229 221 230 225 231 233 219 228 222 216 200 205 209 208 201 193 187 200 197 195 198 203 204 197 206 213 201 208 216 208 215 215 207 201 206 211 221 235 216 244 238 270 288 297 292 303 284 274 283 296 320 314 306 303 299 295 306 307 308 312 311
140 90 78 356 12 35 283 177 238 127 268 146 156 345 290 252 235 239 239 163 179 178 194 199 202 209 211 214 219 220 220 226 224 218 224 222 222 215 222 222 219 221 228 223 226 199 206 209 209 213 197 195 195 199 200 202 198 201 199 202 208 204 209 207 215 218 219 216 207 210 210 215 222 225 231 225 246 257 268 286 298 288 275 260 278 301 317 315 321 323 312 309 312 316 321 313 307
123 35 117 42 5 348 265 96 14 114 256 111 84 299 270 251 237 263 231 157 149 173 212 221 227 230 235 233 225 235 242 237 231 226 225 226 224 218 221 229 216 215 221 227 234 228 220 212 210 200 195 200 204 203 200 200 201 201 201 202 203 201 209 208 221 221 218 215 211 213 215 219 221 224 219 243 228 248 276 277 270 282 269 255 284 320 330 317 313 317 302 324 320 331 321 314 318
102 198 60 139 72 260 269 188 235 177 155 116 115 212 288 273 281 248 209 167 161 197 215 221 229 239 244 245 244 241 244 220 224 227 229 229 228 223 222 233 222 224 232 237 218 229 215 213 199 204 198 205 202 205 202 205 196 196 197 199 204 200 208 212 225 223 223 220 207 219 217 220 225 223 222 224 252 247 262 275 275 264 272 263 297 302 317 307 305 300 304 313 310 315 304 303 310
79 57 295 333 115 278 291 302 169 187 331 107 94 261 236 260 263 265 183 179 176 202 218 226 228 235 237 240 237 241 241 239 243 247 240 235 228 228 222 232 225 223 222 227 229 227 226 218 202 205 195 202 206 205 204 200 197 196 197 199 200 203 209 214 221 221 219 219 210 220 220 223 223 224 224 219 238 245 249 260 263 275 270 271 280 302 328 314 308 305 294 297 325 314 321 309 304
357 69 282 263 80 235 346 235 207 195 161 19 167 238 323 315 284 290 184 177 195 213 234 236 236 237 240 239 235 239 256 266 262 251 249 239 237 229 226 229 223 219 218 222 224 222 226 219 206 205 202 204 205 207 202 202 195 197 199 201 201 200 210 219 221 222 223 221 220 223 221 222 224 221 221 215 221 241 247 252 263 266 277 271 280 287 301 283 302 307 302 296 302 303 316 308 308
322 42 226 212 179 207 262 299 230 56 119 258 14 204 240 250 285 311 238 189 193 220 238 241 237 235 237 240 245 248 249 256 254 245 243 232 234 228 228 224 222 219 219 217 216 208 213 207 204 207 211 205 202 200 199 197 200 198 203 205 205 209 220 220 223 213 223 221 220 228 220 222 225 222 221 220 222 235 238 244 260 266 276 282 276 279 275 287 284 276 295 291 295 307 306 309 309
207 241 36 299 335 225 216 136 242 68 20 202 325 248 271 272 282 270 230 201 194 223 225 234 240 243 245 244 247 250 251 251 250 241 238 235 233 235 231 232 233 229 225 218 215 218 216 208 207 214 210 205 206 198 196 190 186 204 216 214 229 235 238 234 226 227 227 224 227 228 220 222 227 221 222 220 224 240 247 250 258 263 271 276 276 278 284 291 295 286 281 297 300 276 275 289 291
151 169 194 167 157 227 205 249 274 145 319 282 234 243 286 298 295 286 268 197 200 229 251 263 255 252 256 254 254 251 246 251 251 253 250 250 238 235 232 231 233 231 232 226 219 213 217 216 212 224 218 202 185 176 164 174 169 198 212 250 267 246 240 237 232 232 229 228 231 227 225 224 227 223 219 218 224 234 242 249 256 263 266 266 272 277 278 281 280 294 291 287 302 302 276 275 288
35 116 94 194 173 283 279 279 255 82 19 251 230 266 269 277 272 290 277 181 215 248 248 246 251 251 253 254 251 251 249 244 265 266 253 243 243 245 244 237 238 246 250 239 228 223 212 207 187 221 211 181 177 181 184 178 190 216 244 223 232 225 220 225 238 234 231 232 229 226 226 225 222 226 221 211 223 232 235 246 251 263 259 261 260 261 265 274 270 260 277 306 302 310 304 305 301
198 141 133 154 192 214 234 187 1 326 116 289 338 316 285 258 283 282 320 149 215 219 231 247 250 245 250 252 261 255 250 294 308 295 282 270 261 257 254 241 223 234 243 218 220 220 213 209 208 224 175 192 200 197 193 189 194 191 177 207 210 222 221 222 237 229 231 232 229 227 228 226 222 222 224 214 224 220 236 238 240 248 246 253 255 263 275 271 279 282 298 307 257 291 291 297 312
169 200 190 103 278 249 283 277 334 307 82 266 349 350 282 284 282 290 171 192 234 216 213 225 223 248 250 252 256 267 286 278 302 282 284 287 293 294 268 255 243 229 247 220 236 235 221 216 229 228 202 198 209 203 186 209 209 217 196 208 186 234 233 227 234 237 232 237 237 235 235 231 224 228 225 222 222 226 231 233 239 235 235 241 263 268 264 273 259 265 272 264 303 265 266 283 281
71 53 49 225 266 47 272 290 353 336 175 282 7 333 290 305 296 287 247 201 253 240 227 242 221 233 238 238 240 257 271 277 283 286 301 311 304 300 320 289 270 305 283 277 259 239 238 231 232 225 220 208 208 209 210 219 206 206 225 198 216 209 242 259 250 264 263 259 255 239 243 230 225 231 223 224 228 229 222 231 237 229 240 221 231 255 258 259 256 257 253 252 235 304 335 306 302
344 109 127 158 343 3 152 252 318 300 299 49 329 346 322 339 358 325 318 252 293 301 306 271 266 242 255 291 294 232 244 253 275 308 313 328 341 327 287 268 274 267 264 255 252 245 243 242 237 226 226 216 214 211 214 207 187 195 211 295 336 311 281 282 311 282 243 246 262 245 243 223 230 232 225 224 226 230 227 229 228 233 231 229 225 243 254 252 252 249 243 250 224 249 294 293 311
316 240 163 184 151 307 333 326 26 18 348 336 55 18 306 289 286 249 276 342 289 287 276 267 261 272 265 261 257 276 272 250 238 249 280 292 300 316 338 331 295 266 266 255 233 241 240 250 244 237 235 230 222 219 210 188 203 203 200 222 256 247 265 257 248 246 245 236 236 235 239 220 225 231 228 226 226 229 230 225 225 231 235 232 227 240 258 271 261 256 240 234 257 229 249 287 285
88 263 152 148 147 116 49 358 60 32 163 336 45 129 262 327 298 244 267 312 289 312 300 270 278 267 258 242 251 263 258 32 241 245 335 11 349 355 347 356 336 296 272 275 265 255 252 251 250 241 236 241 238 229 196 188 205 208 214 220 226 230 242 250 232 234 224 233 222 237 238 227 222 225 232 224 226 227 229 225 223 226 233 234 232 238 252 249 256 248 241 226 238 244 202 262 267
249 142 132 124 109 101 170 88 101 194 257 282 40 96 170 307 287 262 281 276 278 317 297 289 282 281 261 247 250 256 263 249 245 35 3 346 351 45 353 332 347 336 314 334 324 304 277 269 269 258 245 242 235 215 190 195 205 211 218 229 230 236 230 253 245 250 241 240 241 249 244 239 228 221 231 228 225 226 225 230 223 225 228 234 225 231 242 249 246 244 230 229 235 224 217 236 270
215 185 139 101 123 159 114 85 103 224 323 282 333 339 5 261 264 323 356 194 276 268 264 270 276 285 290 276 250 240 236 223 176 103 50 44 43 16 16 23 348 1 7 9 6 2 356 339 322 311 290 286 286 231 203 205 210 212 215 223 243 239 242 252 264 274 278 266 270 272 263 257 243 235 230 233 229 226 227 230 222 225 229 237 223 238 240 238 238 242 238 231 230 235 219 236 248
271 153 71 74 77 80 89 95 81 343 57 282 241 315 205 282 282 312 349 254 264 244 234 239 239 235 237 198 201 194 183 151 165 152 160 63 356 359 310 340 22 1 350 2 20 20 24 24 26 26 13 346 315 299 242 232 218 215 215 221 232 251 245 262 266 274 271 274 269 274 271 271 261 254 243 236 239 230 231 231 227 228 234 237 232 238 245 243 240 236 236 232 230 239 229 225 235
164 89 69 15 37 41 21 68 86 57 10 258 238 326 151 300 252 200 148 219 201 220 281 265 262 258 248 240 198 187 163 154 146 145 116 346 278 321 5 45 347 5 3 25 19 21 22 32 23 35 9 9 12 2 299 243 228 216 223 228 230 246 252 256 280 280 278 290 275 279 277 271 266 258 255 251 237 240 238 232 233 238 239 241 243 242 242 243 244 237 238 228 234 236 241 235 247
108 98 120 62 333 11 38 342 30 97 278 258 259 249 212 174 291 269 235 271 204 169 194 197 213 210 217 217 223 204 180 174 174 141 153 29 55 27 24 33 10 347 10 12 10 9 21 26 32 36 18 9 2 2 14 0 249 221 225 233 238 241 249 253 255 266 273 280 287 291 294 307 290 281 270 271 264 252 244 247 246 248 246 242 244 243 251 246 251 242 243 238 246 242 247 247 246
60 55 35 86 272 33 284 14 301 210 202 256 337 263 15 240 223 226 236 230 240 219 185 190 194 206 215 224 212 204 191 185 178 189 205 223 161 202 32 12 17 15 5 359 3 14 17 30 34 49 20 6 4 3 15 3 21 351 254 234 236 247 246 242 251 268 286 289 294 305 315 314 317 325 295 262 270 260 241 247 243 241 246 244 250 252 254 258 256 251 251 255 253 252 248 244 247
74 181 134 77 28 36 265 278 240 297 303 260 309 276 256 252 282 233 226 224 212 204 214 195 180 190 197 201 207 199 202 192 191 195 205 200 196 213 233 287 19 8 7 4 4 25 26 39 36 54 24 13 8 19 13 22 16 10 3 320 252 234 251 246 257 255 282 285 292 296 307 312 314 304 309 295 277 264 234 236 242 246 246 256 255 255 261 261 253 250 255 257 257 258 257 250 253
214 146 121 196 137 161 238 234 244 214 216 273 282 75 234 109 218 227 228 269 282 242 239 219 206 192 186 194 190 196 202 221 199 190 202 194 192 183 173 114 39 19 13 13 16 22 50 42 47 50 34 11 20 15 18 24 19 17 25 34 43 63 143 85 304 274 308 340 352 359 347 344 347 323 318 300 314 299 266 256 250 252 261 263 268 269 268 266 258 258 258 258 266 264 259 257 260
242 169 91 78 238 128 192 208 165 278 341 343 226 214 184 181 261 286 275 268 293 283 189 143 190 202 176 164 182 194 206 209 200 193 210 215 193 187 163 110 72 54 26 25 29 31 59 48 61 59 50 21 20 21 18 20 14 29 34 43 37 53 59 66 53 38 43 56 33 53 6 3 351 324 330 335 333 330 304 290 276 262 274 277 272 264 270 270 268 263 270 264 268 261 260 259 259
231 80 236 214 117 99 93 58 39 118 49 254 182 316 297 298 309 294 2 94 234 207 209 197 196 198 178 194 203 202 207 210 195 197 191 183 176 196 155 127 104 73 51 48 43 57 77 66 65 54 33 26 23 17 16 14 21 44 33 39 39 46 56 61 63 45 27 35 55 42 29 357 6 24 353 1 355 3 2 302 288 290 291 281 281 276 271 269 270 261 266 271 269 267 256 262 265
57 134 239 262 163 121 130 244 336 59 137 263 40 227 298 28 265 324 277 211 233 231 224 219 222 202 198 213 207 202 205 207 202 202 196 181 172 161 146 116 118 114 118 81 57 53 76 86 84 76 48 33 11 19 20 22 32 42 37 40 42 53 60 58 54 53 36 43 22 18 13 19 4 346 5 3 16 16 16 20 1 324 312 302 282 286 275 272 267 266 264 267 264 274 274 270 266
149 199 315 154 211 132 331 93 318 299 283 283 309 290 260 189 250 354 240 218 227 227 224 226 230 219 217 217 220 217 218 211 204 206 188 178 167 161 147 137 126 116 103 109 85 68 70 64 74 82 62 38 22 33 35 41 46 60 60 56 57 53 55 61 57 58 53 49 32 22 28 7 14 11 20 17 21 19 14 10 17 357 348 333 309 292 286 286 266 274 276 276 281 277 275 279 274
114 353 9 318 120 190 111 202 179 116 276 41 288 25 252 208 221 197 214 208 214 210 206 220 216 210 206 208 204 201 203 199 197 196 182 173 170 164 158 148 128 118 108 84 93 83 74 71 67 53 45 35 47 41 43 52 46 64 59 58 51 60 59 63 56 58 54 49 35 38 28 30 17 24 21 28 30 25 15 14 3 7 355 349 341 323 312 294 295 276 282 289 287 285 283 283 286
30 118 300 332 289 218 113 356 158 192 184 185 231 322 274 259 212 182 217 211 211 198 205 213 214 212 208 202 195 197 197 195 197 187 176 169 165 163 155 145 130 116 116 110 108 106 102 76 65 62 68 54 58 47 51 53 56 55 63 58 49 47 48 51 58 52 60 46 38 37 34 24 37 28 20 30 28 18 17 14 11 8 3 349 346 337 337 335 320 310 300 286 292 289 285 286 285
175 163 198 179 124 136 156 273 26 88 117 238 134 256 270 266 195 214 226 243 229 219 206 211 211 206 202 204 205 193 193 203 190 186 170 169 167 159 151 131 118 112 110 120 156 103 80 77 90 76 76 58 76 52 57 56 60 63 63 56 54 52 53 53 58 48 51 45 38 34 16 33 41 16 33 28 23 14 13 14 14 1 356 349 344 336 331 337 326 319 310 302 295 297 294 289 291